GW4041 Weather Reports


time (UTC)temp
F
wind
direction
speed
knots
gust
knots
rain 1hr
in
rain 24hr
in
rain mn
in
humidity
%
barometer
mb
20260506231255 65 328 0.0 0.9 0.00 0.11 0.11 92 1007.4
20260506230752 65 343 0.0 0.9 0.00 0.11 0.11 91 1007.3
20260506230248 65 62 0.9 1.7 0.00 0.11 0.11 91 1007.2
20260506225745 65 328 0.0 0.0 0.00 0.11 0.11 91 1007.2
20260506225242 66 354 0.0 0.9 0.00 0.11 0.11 89 1007.0
20260506224738 65 308 0.0 0.9 0.00 0.11 0.11 89 1006.9
20260506224236 65 40 0.0 0.9 0.00 0.11 0.11 91 1007.1
20260506223732 66 15 0.0 0.9 0.00 0.11 0.11 91 1007.2
20260506223227 65 90 0.9 1.7 0.00 0.11 0.11 89 1007.2
20260506222725 66 244 0.0 0.9 0.00 0.11 0.11 91 1007.3
20260506222220 65 9 0.0 0.0 0.00 0.11 0.11 90 1007.3
20260506221718 65 340 0.0 0.9 0.00 0.11 0.11 91 1007.5
20260506221216 65 19 0.0 0.0 0.00 0.11 0.11 92 1007.6
20260506220713 64 306 0.9 0.9 0.00 0.11 0.11 92 1007.1
20260506220208 65 325 0.0 0.9 0.00 0.11 0.11 93 1007.1
20260506215705 64 44 0.0 0.9 0.00 0.11 0.11 93 1007.0
20260506215200 64 332 0.0 0.0 0.00 0.11 0.11 92 1007.2
20260506214652 64 338 0.0 0.0 0.00 0.11 0.11 93 1007.0
20260506214149 64 342 0.9 1.7 0.00 0.11 0.11 92 1006.7
20260506213648 64 320 0.0 0.9 0.00 0.11 0.11 92 1007.1
20260506213144 64 15 0.9 1.7 0.00 0.11 0.11 93 1007.0
20260506212641 64 323 0.0 0.9 0.00 0.11 0.11 94 1007.0
20260506212136 64 262 0.9 1.7 0.00 0.11 0.11 92 1006.9
20260506211632 64 342 0.0 0.0 0.00 0.11 0.11 93 1006.9
20260506211129 64 329 0.0 0.0 0.00 0.11 0.11 93 1006.9
20260506210626 63 9 0.0 0.9 0.00 0.11 0.11 94 1006.9
20260506210122 63 326 0.0 0.9 0.00 0.11 0.11 94 1006.9
20260506205619 63 31 0.0 1.7 0.00 0.11 0.11 94 1006.8
20260506205114 63 298 0.9 0.9 0.00 0.11 0.11 94 1006.9
20260506204613 63 5 0.9 4.3 0.00 0.11 0.11 94 1006.9
20260506204109 63 21 0.0 0.9 0.00 0.11 0.11 95 1006.9
20260506203608 63 266 0.9 0.9 0.00 0.11 0.11 95 1006.7
20260506203104 63 33 0.0 1.7 0.00 0.11 0.11 95 1006.5
20260506202602 63 29 0.0 0.9 0.00 0.11 0.11 95 1006.5
20260506202058 63 316 0.0 0.0 0.00 0.11 0.11 96 1006.7
20260506201555 63 323 0.0 0.9 0.00 0.11 0.11 97 1006.6
20260506201052 62 23 0.0 0.0 0.00 0.11 0.11 97 1006.8
20260506200548 62 163 0.9 1.7 0.00 0.11 0.11 97 1006.9
20260506200045 62 298 0.9 1.7 0.00 0.11 0.11 98 1006.8
20260506195541 62 21 0.0 0.0 0.00 0.11 0.11 98 1006.8
20260506195038 62 320 0.0 0.9 0.00 0.11 0.11 98 1006.7
20260506194535 62 95 0.0 1.7 0.00 0.11 0.11 99 1007.2
20260506194031 62 98 0.0 0.9 0.00 0.11 0.11 98 1007.1
20260506193529 61 1 0.0 1.7 0.00 0.11 0.11 99 1006.9
20260506193026 61 98 0.0 0.0 0.00 0.11 0.11 99 1007.3
20260506192523 61 341 0.0 1.7 0.00 0.11 0.11 98 1007.4
20260506192019 61 243 2.6 5.2 0.00 0.11 0.11 98 1007.5
20260506191516 61 56 0.0 2.6 0.00 0.11 0.11 98 1007.6
20260506191012 61 248 0.0 2.6 0.00 0.11 0.11 98 1007.5
20260506190509 61 77 0.0 1.7 0.00 0.11 0.11 99 1007.5
20260506190006 61 178 0.9 0.9 0.00 0.11 0.11 98 1007.5
20260506185503 61 336 0.0 0.0 0.00 0.11 0.11 99 1007.4
20260506185000 61 330 0.0 0.0 0.00 0.11 0.11 99 1007.6
20260506184457 61 228 2.6 4.3 0.00 0.11 0.11 99 1007.5
20260506183954 61 208 0.0 1.7 0.00 0.11 0.11 99 1007.4
20260506183449 61 341 0.0 2.6 0.00 0.11 0.11 99 1007.3
20260506182946 62 328 0.0 0.0 0.05 0.11 0.11 99 1007.6
20260506182444 62 336 0.0 1.7 0.05 0.11 0.11 99 1007.8
20260506181941 62 327 0.0 0.0 0.00 0.10 0.10 98 1007.8
20260506181439 62 42 0.0 0.9 0.00 0.10 0.10 98 1007.4
20260506180936 62 110 0.9 1.7 0.00 0.10 0.10 98 1007.5
20260506180432 62 249 0.0 0.0 0.00 0.10 0.10 98 1007.7
20260506175929 62 342 0.0 1.7 0.00 0.10 0.10 98 1007.8
20260506175425 62 220 0.9 2.6 0.00 0.10 0.10 97 1007.6
20260506174917 62 284 0.0 1.7 0.00 0.10 0.10 97 1008.0
20260506174414 62 331 0.0 0.0 0.00 0.10 0.10 97 1008.0
20260506173912 62 300 0.0 2.6 0.00 0.10 0.10 97 1008.0
20260506173408 62 174 0.9 1.7 0.00 0.10 0.10 97 1008.3
20260506172906 63 7 0.9 2.6 0.00 0.10 0.10 97 1008.0
20260506172402 63 320 0.0 0.9 0.00 0.10 0.10 96 1008.1
20260506171859 63 41 0.0 1.7 0.00 0.10 0.10 96 1007.8
20260506171356 63 99 0.9 4.3 0.00 0.10 0.10 96 1007.7
20260506170853 62 165 0.0 0.9 0.00 0.10 0.10 96 1007.9
20260506170349 62 130 0.9 2.6 0.00 0.10 0.10 96 1007.9
20260506165844 62 126 0.9 1.7 0.00 0.10 0.10 97 1007.8
20260506165341 62 13 1.7 4.3 0.07 0.10 0.10 97 1007.9
20260506164837 62 111 0.0 2.6 0.07 0.10 0.10 97 1007.9
20260506164334 62 167 1.7 4.3 0.00 0.09 0.09 96 1008.3
20260506163832 62 72 0.0 0.9 0.07 0.09 0.09 96 1008.5
20260506163326 62 110 0.9 1.7 0.00 0.08 0.08 96 1009.0
20260506162821 62 94 0.9 0.9 0.05 0.08 0.08 97 1008.9
20260506162319 62 72 0.0 0.9 0.05 0.08 0.08 97 1009.1
20260506161816 62 1 0.0 0.9 0.07 0.07 0.07 97 1009.1
20260506161314 62 308 0.0 0.0 0.12 0.07 0.07 96 1009.2
20260506160812 62 335 0.0 0.0 0.12 0.06 0.06 96 1009.1
20260506160308 62 2 0.0 0.0 0.07 0.05 0.05 96 1009.2
20260506155807 62 329 0.0 0.0 0.05 0.04 0.04 96 1009.4
20260506155306 63 339 0.0 0.0 0.12 0.04 0.04 95 1009.7
20260506153415 64 18 0.0 1.7 0.07 0.01 0.01 89 1009.1
20260506152913 64 345 0.9 0.9 0.00 0.00 0.00 88 1009.2
20260506152409 64 281 0.0 0.9 0.00 0.00 0.00 86 1009.2
20260506151908 65 324 0.0 0.9 0.00 0.00 0.00 85 1009.1
20260506151404 65 282 0.0 1.7 0.00 0.00 0.00 84 1009.4
20260506150902 65 279 0.9 1.7 0.00 0.00 0.00 82 1009.2
20260506150358 65 295 0.0 4.3 0.00 0.00 0.00 82 1009.1
20260506145855 66 349 0.9 1.7 0.00 0.00 0.00 81 1009.1
20260506145351 66 178 0.9 2.6 0.00 0.00 0.00 78 1009.5
20260506144849 67 246 0.9 0.9 0.00 0.00 0.00 77 1009.4
20260506144345 67 278 2.6 2.6 0.00 0.00 0.00 75 1009.5
20260506143844 68 203 0.9 6.1 0.00 0.00 0.00 74 1009.7
20260506143340 68 341 0.0 2.6 0.00 0.00 0.00 73 1009.5
20260506142839 68 288 0.9 4.3 0.00 0.00 0.00 72 1009.3
20260506142336 68 157 0.9 1.7 0.00 0.00 0.00 74 1009.3
20260506141835 68 225 4.3 5.2 0.00 0.00 0.00 73 1009.3
20260506141332 69 119 0.0 4.3 0.00 0.00 0.00 74 1009.4
20260506140830 69 11 0.9 4.3 0.00 0.00 0.00 74 1009.3
20260506140327 68 291 0.9 1.7 0.00 0.00 0.00 74 1009.3
20260506135824 67 209 2.6 6.1 0.00 0.00 0.00 76 1009.1
20260506135320 67 355 0.9 2.6 0.00 0.00 0.00 76 1009.3
20260506134817 67 42 0.0 1.7 0.00 0.00 0.00 76 1009.3
20260506134313 67 239 0.9 2.6 0.00 0.00 0.00 76 1009.3
20260506133810 67 91 0.9 4.3 0.00 0.00 0.00 76 1009.1
20260506133307 67 97 2.6 5.2 0.00 0.00 0.00 75 1009.2
20260506132804 67 167 0.0 2.6 0.00 0.00 0.00 75 1009.6
20260506132301 67 138 0.9 1.7 0.00 0.00 0.00 75 1009.6
20260506131759 67 168 0.9 1.7 0.00 0.00 0.00 76 1009.5
20260506131254 67 342 0.9 2.6 0.00 0.00 0.00 75 1009.6
20260506130752 67 254 0.9 2.6 0.00 0.00 0.00 76 1009.6
20260506130249 67 327 0.0 1.7 0.00 0.00 0.00 76 1009.5
20260506125747 66 172 1.7 1.7 0.00 0.00 0.00 76 1009.5
20260506125244 66 7 0.9 7.8 0.00 0.00 0.00 77 1009.5
20260506124743 66 288 0.9 5.2 0.00 0.00 0.00 77 1009.4
20260506124240 66 214 0.9 2.6 0.00 0.00 0.00 77 1009.2
20260506123737 66 57 0.9 7.8 0.00 0.00 0.00 77 1009.3
20260506123236 66 158 2.6 4.3 0.00 0.00 0.00 77 1009.2
20260506122732 65 205 3.5 7.8 0.00 0.00 0.00 77 1009.2
20260506122229 65 196 1.7 4.3 0.00 0.00 0.00 79 1009.4
20260506121728 65 94 2.6 2.6 0.00 0.00 0.00 79 1009.5
20260506121224 64 20 1.7 2.6 0.00 0.00 0.00 79 1009.4
20260506120722 64 106 1.7 2.6 0.00 0.00 0.00 80 1009.7
20260506120219 64 173 0.0 1.7 0.00 0.00 0.00 81 1009.3
20260506115717 64 110 0.9 2.6 0.00 0.00 0.00 81 1009.4
20260506115215 64 124 0.9 5.2 0.00 0.00 0.00 81 1009.4
20260506114712 64 151 3.5 6.1 0.00 0.00 0.00 80 1009.4
20260506114209 64 331 1.7 7.8 0.00 0.00 0.00 80 1009.6
20260506113708 64 207 2.6 5.2 0.00 0.00 0.00 80 1009.7
20260506113205 64 67 0.9 5.2 0.00 0.00 0.00 80 1009.6
20260506112701 65 178 1.7 4.3 0.00 0.00 0.00 80 1009.7
20260506112159 65 224 1.7 4.3 0.00 0.00 0.00 80 1009.5
20260506111656 65 110 1.7 4.3 0.00 0.00 0.00 79 1009.4
20260506111154 65 207 3.5 4.3 0.00 0.00 0.00 80 1009.7
20260506110651 64 132 0.9 5.2 0.00 0.00 0.00 82 1009.6
20260506110148 64 68 2.6 4.3 0.00 0.00 0.00 82 1009.5
20260506105645 64 76 1.7 6.1 0.00 0.00 0.00 82 1009.4
20260506105142 64 313 1.7 2.6 0.00 0.00 0.00 82 1009.7
20260506104640 64 92 6.1 8.7 0.00 0.00 0.00 82 1009.7
20260506104137 63 148 1.7 1.7 0.00 0.00 0.00 83 1009.5
20260506103634 62 146 2.6 4.3 0.00 0.00 0.00 85 1009.3
20260506103131 62 212 0.9 1.7 0.00 0.00 0.00 85 1009.4
20260506102629 62 161 1.7 6.1 0.00 0.00 0.00 85 1009.3
20260506102126 62 95 2.6 7.0 0.00 0.00 0.00 85 1009.4
20260506101623 62 119 0.9 5.2 0.00 0.00 0.00 85 1009.4
20260506101120 62 210 0.9 4.3 0.00 0.00 0.00 85 1009.2
20260506100619 62 170 0.9 2.6 0.00 0.00 0.00 85 1009.6
20260506100116 62 249 0.9 4.3 0.00 0.00 0.00 85 1009.4
20260506095615 62 134 0.9 4.3 0.00 0.00 0.00 84 1009.3
20260506095111 63 69 0.9 2.6 0.00 0.00 0.00 85 1009.1
20260506094608 62 113 2.6 7.8 0.00 0.00 0.00 85 1009.3
20260506094106 62 201 0.9 4.3 0.00 0.00 0.00 85 1009.2
20260506093604 62 211 1.7 4.3 0.00 0.00 0.00 85 1009.1
20260506093101 63 104 1.7 2.6 0.00 0.00 0.00 85 1009.4
20260506092559 62 169 1.7 2.6 0.00 0.00 0.00 86 1009.5
20260506092055 63 172 0.9 6.1 0.00 0.00 0.00 85 1009.2
20260506091554 62 73 0.9 4.3 0.00 0.00 0.00 85 1009.4
20260506091051 62 168 2.6 4.3 0.00 0.00 0.00 85 1009.4
20260506090549 62 99 1.7 2.6 0.00 0.00 0.00 86 1009.7
20260506090045 63 149 1.7 6.1 0.00 0.00 0.00 85 1009.6
20260506085542 63 156 2.6 2.6 0.00 0.00 0.00 85 1009.3
20260506085038 63 353 1.7 2.6 0.00 0.00 0.00 85 1009.3
20260506084535 63 183 3.5 4.3 0.00 0.00 0.00 85 1009.3
20260506084031 63 288 0.0 8.7 0.00 0.00 0.00 85 1009.7
20260506083529 63 61 0.9 1.7 0.00 0.00 0.00 85 1009.5
20260506083026 63 132 2.6 5.2 0.00 0.00 0.00 84 1009.4
20260506082523 63 28 0.9 5.2 0.00 0.00 0.00 84 1009.3
20260506082018 63 142 3.5 6.1 0.00 0.00 0.00 84 1009.5
20260506081517 63 232 1.7 4.3 0.00 0.00 0.00 84 1009.4
20260506081014 64 136 0.9 0.9 0.00 0.00 0.00 83 1009.7
20260506080511 64 38 0.9 4.3 0.00 0.00 0.00 84 1009.6
20260506073454 64 261 1.7 7.0 0.00 0.00 0.00 83 1009.5
20260506072952 64 259 0.9 4.3 0.00 0.00 0.00 83 1009.7
20260506072449 64 101 1.7 4.3 0.00 0.00 0.00 82 1009.7
20260506071947 64 210 0.9 5.2 0.00 0.00 0.00 82 1009.6
20260506071444 64 134 1.7 2.6 0.00 0.00 0.00 82 1009.6
20260506070941 64 106 4.3 6.1 0.00 0.00 0.00 82 1009.5
20260506070438 64 90 1.7 4.3 0.00 0.00 0.00 82 1009.5
20260506062416 64 94 0.9 1.7 0.00 0.00 0.00 80 1009.9
20260506061911 65 187 0.9 1.7 0.00 0.00 0.00 79 1010.0
20260506061408 64 50 1.7 1.7 0.00 0.00 0.00 79 1010.1
20260506060906 65 81 1.7 1.7 0.00 0.00 0.00 79 1010.0
20260506060404 65 236 0.9 2.6 0.00 0.00 0.00 78 1010.0
20260506051336 66 178 2.6 5.2 0.00 0.00 0.00 75 1010.4
20260506050833 66 85 0.9 1.7 0.00 0.00 0.00 75 1010.4
20260506050331 65 73 0.9 1.7 0.00 0.00 0.00 75 1010.2
20260506044821 65 66 1.7 1.7 0.00 0.00 0.00 74 1010.5
20260506044319 66 105 1.7 1.7 0.00 0.00 0.00 74 1010.4
20260506043816 66 101 0.9 1.7 0.00 0.00 0.00 74 1010.6
20260506043313 66 161 3.5 5.2 0.00 0.00 0.00 73 1010.4
20260506042812 66 122 0.9 0.9 0.00 0.00 0.00 72 1010.5
20260506042310 66 159 2.6 4.3 0.00 0.00 0.00 72 1010.5
20260506041809 66 61 0.9 1.7 0.00 0.00 0.00 72 1010.4
20260506041305 66 85 0.9 1.7 0.00 0.00 0.00 72 1010.4
20260506040802 66 17 0.9 1.7 0.00 0.00 0.00 71 1010.5
20260506040259 67 199 0.0 2.6 0.00 0.00 0.00 71 1010.3
20260506035756 66 93 0.9 1.7 0.00 0.00 0.00 71 1010.4
20260506035253 67 93 0.0 0.9 0.00 0.00 0.00 70 1010.4
20260506034750 67 303 0.9 2.6 0.00 0.00 0.00 69 1010.3
20260506034247 67 5 0.9 4.3 0.00 0.00 0.00 69 1010.1
20260506033744 67 117 0.9 1.7 0.00 0.00 0.00 70 1010.4
20260506033241 67 216 0.9 5.2 0.00 0.00 0.00 68 1010.4
20260506032738 67 0 0.0 1.7 0.00 0.00 0.00 69 1010.6
20260506032235 67 104 1.7 1.7 0.00 0.00 0.00 69 1010.4
20260506031732 67 69 2.6 4.3 0.00 0.00 0.00 68 1010.3
20260506031229 68 75 0.9 2.6 0.00 0.00 0.00 68 1010.4
20260506030727 68 230 1.7 7.8 0.00 0.00 0.00 67 1010.3
20260506030225 68 112 1.7 1.7 0.00 0.00 0.00 67 1010.3
20260506025721 68 129 1.7 2.6 0.00 0.00 0.00 68 1010.5
20260506025218 68 73 1.7 4.3 0.00 0.00 0.00 67 1010.4
20260506024715 68 111 0.9 4.3 0.00 0.00 0.00 67 1010.3
20260506024211 68 239 0.9 1.7 0.00 0.00 0.00 67 1010.6
20260506023707 68 103 3.5 6.1 0.00 0.00 0.00 66 1010.4
20260506023205 68 112 3.5 6.1 0.00 0.00 0.00 66 1010.3
20260506022656 69 249 2.6 5.2 0.00 0.00 0.00 65 1010.3
20260506022154 69 54 1.7 1.7 0.00 0.00 0.00 66 1010.5
20260506021652 69 165 1.7 5.2 0.00 0.00 0.00 65 1010.6
20260506021148 69 172 3.5 7.0 0.00 0.00 0.00 65 1010.3
20260506020645 69 84 0.9 2.6 0.00 0.00 0.00 65 1010.4
20260506020143 69 348 0.0 0.9 0.00 0.00 0.00 65 1010.4
20260506015640 69 76 1.7 4.3 0.00 0.00 0.00 64 1010.5
20260506015137 69 61 1.7 4.3 0.00 0.00 0.00 64 1010.2
20260506014635 69 181 2.6 5.2 0.00 0.00 0.00 64 1010.3
20260506014130 69 152 0.9 1.7 0.00 0.00 0.00 64 1010.3
20260506013629 70 251 1.7 2.6 0.00 0.00 0.00 63 1010.3
20260506013125 70 210 0.9 4.3 0.00 0.00 0.00 62 1010.2
20260506012621 71 223 2.6 5.2 0.00 0.00 0.00 61 1010.3
20260506012112 71 209 2.6 5.2 0.00 0.00 0.00 60 1010.2
20260506011610 71 111 2.6 5.2 0.00 0.00 0.00 59 1010.0
20260506011106 71 136 4.3 7.0 0.00 0.00 0.00 57 1010.0
20260506010605 72 203 0.9 1.7 0.00 0.00 0.00 56 1009.9
20260506005559 73 237 2.6 4.3 0.00 0.00 0.00 53 1009.7
20260506005054 73 357 0.9 4.3 0.00 0.00 0.00 52 1009.6
20260506004552 73 355 0.9 2.6 0.00 0.00 0.00 51 1009.3
20260506004048 73 244 0.9 4.3 0.00 0.00 0.00 51 1009.5
20260506003545 73 210 0.9 0.9 0.00 0.00 0.00 50 1009.4
20260506003041 74 92 0.9 2.6 0.00 0.00 0.00 49 1009.1
20260506002537 74 187 1.7 5.2 0.00 0.00 0.00 50 1009.3
20260506002033 74 210 3.5 5.2 0.00 0.00 0.00 49 1009.2
20260506001530 74 16 0.9 2.6 0.00 0.00 0.00 50 1009.1
20260506001027 74 111 0.9 1.7 0.00 0.00 0.00 49 1009.1
20260506000525 75 138 0.9 2.6 0.00 0.00 0.00 49 1009.2
20260506000022 74 92 0.0 0.9 0.00 0.00 0.00 50 1009.0
20260505235520 74 168 1.7 4.3 0.00 0.00 0.00 49 1008.8
20260505235016 75 140 0.9 2.6 0.00 0.00 0.00 49 1009.2
20260505234513 75 235 1.7 2.6 0.00 0.00 0.00 48 1009.0
20260505234010 75 334 0.0 1.7 0.00 0.00 0.00 49 1008.9
20260505233508 76 68 0.0 1.7 0.00 0.00 0.00 48 1008.8
20260505233005 76 167 0.9 7.0 0.00 0.00 0.00 48 1008.8
20260505232503 76 255 0.9 4.3 0.00 0.00 0.00 46 1008.9
20260505232000 76 60 2.6 8.7 0.00 0.00 0.00 44 1008.9